TimeEDT,TemperatureF,Dew PointF,Humidity,Sea Level PressureIn,VisibilityMPH,Wind Direction,Wind SpeedMPH,Gust SpeedMPH,PrecipitationIn,Events,Conditions,WindDirDegrees,DateUTC
12:53 AM,59.0,54.0,83,30.16,10.0,East,12.7,19.6,N/A,,Overcast,80,2013-05-03 04:53:00
1:10 AM,57.2,55.4,94,30.17,2.5,ENE,10.4,-,0.01,Rain,Light Rain,60,2013-05-03 05:10:00
1:20 AM,57.2,55.4,94,30.16,5.0,ENE,10.4,19.6,0.01,,Overcast,70,2013-05-03 05:20:00
1:28 AM,57.2,55.4,94,30.16,6.0,ENE,11.5,-,0.01,,Overcast,60,2013-05-03 05:28:00
1:53 AM,57.0,55.0,93,30.14,7.0,East,13.8,19.6,0.01,,Overcast,80,2013-05-03 05:53:00
2:30 AM,57.2,55.4,94,30.14,2.5,East,13.8,19.6,0.00,Rain,Light Rain,80,2013-05-03 06:30:00
2:39 AM,57.2,55.4,94,30.14,3.0,ENE,11.5,-,0.00,,Overcast,70,2013-05-03 06:39:00
2:53 AM,57.0,55.0,93,30.12,2.5,ENE,12.7,19.6,0.00,Rain,Light Rain,70,2013-05-03 06:53:00
3:22 AM,57.2,55.4,94,30.12,3.0,ENE,11.5,23.0,0.00,,Overcast,70,2013-05-03 07:22:00
3:53 AM,57.0,55.0,93,30.09,6.0,East,13.8,20.7,0.00,,Overcast,80,2013-05-03 07:53:00
4:30 AM,57.2,55.4,94,30.11,2.5,East,13.8,19.6,0.00,Rain,Light Rain,80,2013-05-03 08:30:00
4:44 AM,57.2,55.4,94,30.11,2.0,East,12.7,-,0.00,Rain,Light Rain,80,2013-05-03 08:44:00
4:53 AM,57.0,55.0,93,30.09,3.0,East,13.8,19.6,0.01,,Overcast,80,2013-05-03 08:53:00
5:03 AM,55.4,55.4,100,30.10,2.5,ENE,12.7,20.7,0.00,Rain,Light Rain,70,2013-05-03 09:03:00
5:14 AM,57.2,55.4,94,30.10,3.0,East,13.8,19.6,0.00,,Overcast,80,2013-05-03 09:14:00
5:53 AM,57.0,54.0,89,30.09,6.0,East,13.8,20.7,0.00,,Overcast,80,2013-05-03 09:53:00
6:16 AM,55.4,53.6,94,30.11,9.0,ENE,12.7,20.7,N/A,,Overcast,70,2013-05-03 10:16:00
6:49 AM,55.4,53.6,94,30.12,9.0,East,12.7,21.9,N/A,,Overcast,80,2013-05-03 10:49:00
6:53 AM,55.9,54.0,93,30.10,9.0,East,11.5,-,N/A,,Overcast,80,2013-05-03 10:53:00
7:53 AM,55.9,53.1,90,30.12,8.0,East,15.0,21.9,N/A,,Overcast,90,2013-05-03 11:53:00
8:14 AM,55.4,53.6,94,30.14,10.0,East,15.0,-,N/A,,Overcast,90,2013-05-03 12:14:00
8:29 AM,55.4,51.8,88,30.13,10.0,East,12.7,21.9,N/A,,Mostly Cloudy,90,2013-05-03 12:29:00
8:36 AM,55.4,51.8,88,30.13,10.0,East,12.7,-,N/A,,Mostly Cloudy,80,2013-05-03 12:36:00
8:53 AM,57.0,52.0,83,30.12,10.0,East,15.0,21.9,N/A,,Mostly Cloudy,90,2013-05-03 12:53:00
9:11 AM,57.2,51.8,82,30.13,10.0,East,15.0,23.0,N/A,,Overcast,80,2013-05-03 13:11:00
9:53 AM,57.9,52.0,81,30.12,10.0,East,12.7,-,N/A,,Scattered Clouds,80,2013-05-03 13:53:00
10:53 AM,59.0,51.1,75,30.11,10.0,ENE,13.8,23.0,0.00,Rain,Light Rain,70,2013-05-03 14:53:00
11:51 AM,59.0,51.8,77,30.12,10.0,East,17.3,24.2,0.00,,Mostly Cloudy,80,2013-05-03 15:51:00
11:53 AM,59.0,51.1,75,30.10,10.0,East,15.0,24.2,0.00,Rain,Light Rain,80,2013-05-03 15:53:00
12:28 PM,57.2,53.6,88,30.12,2.0,East,13.8,21.9,0.00,Rain,Light Rain,100,2013-05-03 16:28:00
12:33 PM,57.2,53.6,88,30.12,1.5,East,12.7,18.4,0.01,Rain,Rain,80,2013-05-03 16:33:00
12:36 PM,57.2,53.6,88,30.12,1.2,East,12.7,-,0.01,Rain,Rain,90,2013-05-03 16:36:00
12:45 PM,55.4,53.6,94,30.12,1.8,East,11.5,-,0.02,Rain,Light Rain,80,2013-05-03 16:45:00
12:48 PM,55.4,53.6,94,30.12,2.0,East,12.7,-,0.02,Rain,Light Rain,80,2013-05-03 16:48:00
12:53 PM,55.9,54.0,93,30.10,2.5,East,12.7,-,0.03,Rain,Light Rain,80,2013-05-03 16:53:00
1:09 PM,55.4,53.6,94,30.11,1.8,East,12.7,19.6,0.01,Rain,Light Rain,80,2013-05-03 17:09:00
1:16 PM,55.4,53.6,94,30.11,1.5,East,15.0,23.0,0.01,Rain,Light Rain,90,2013-05-03 17:16:00
1:24 PM,57.2,53.6,88,30.11,1.0,East,17.3,23.0,0.02,Rain,Light Rain,80,2013-05-03 17:24:00
1:33 PM,57.2,53.6,88,30.11,1.5,East,12.7,23.0,0.02,Rain,Light Rain,80,2013-05-03 17:33:00
1:49 PM,57.2,53.6,88,30.10,1.8,East,16.1,24.2,0.03,Rain,Light Rain,80,2013-05-03 17:49:00
1:53 PM,57.0,54.0,89,30.08,1.5,East,17.3,24.2,0.03,Rain,Light Rain,80,2013-05-03 17:53:00
2:24 PM,57.2,53.6,88,30.09,2.0,ENE,11.5,20.7,0.01,Rain,Light Rain,70,2013-05-03 18:24:00
2:29 PM,57.2,55.4,94,30.09,3.0,ENE,11.5,19.6,0.01,Rain,Light Rain,70,2013-05-03 18:29:00
2:53 PM,57.0,55.0,93,30.07,10.0,East,16.1,20.7,0.01,,Overcast,80,2013-05-03 18:53:00
3:53 PM,57.9,55.0,90,30.05,10.0,East,16.1,25.3,N/A,,Overcast,90,2013-05-03 19:53:00
4:02 PM,57.2,55.4,94,30.07,10.0,East,12.7,26.5,N/A,,Overcast,90,2013-05-03 20:02:00
4:53 PM,57.9,55.0,90,30.05,10.0,ENE,11.5,20.7,0.00,,Overcast,70,2013-05-03 20:53:00
5:53 PM,57.9,55.0,90,30.04,10.0,East,11.5,-,N/A,,Overcast,80,2013-05-03 21:53:00
6:37 PM,57.2,55.4,94,30.05,2.5,East,12.7,20.7,0.01,Rain,Light Rain,90,2013-05-03 22:37:00
6:47 PM,57.2,55.4,94,30.04,2.0,East,11.5,-,0.01,Rain,Light Rain,90,2013-05-03 22:47:00
6:53 PM,57.0,55.0,93,30.03,1.5,East,11.5,-,0.02,Rain,Light Rain,90,2013-05-03 22:53:00
7:06 PM,57.2,55.4,94,30.04,1.5,East,10.4,-,0.03,Rain,Light Rain,80,2013-05-03 23:06:00
7:08 PM,57.2,55.4,94,30.04,2.0,East,15.0,19.6,0.03,Rain,Light Rain,80,2013-05-03 23:08:00
7:19 PM,57.2,55.4,94,30.04,2.5,East,11.5,18.4,0.03,Rain,Light Rain,80,2013-05-03 23:19:00
7:26 PM,57.2,55.4,94,30.03,3.0,East,16.1,21.9,0.03,Rain,Light Rain,80,2013-05-03 23:26:00
7:34 PM,57.2,55.4,94,30.03,2.0,East,15.0,23.0,0.04,Rain,Light Rain,80,2013-05-03 23:34:00
7:36 PM,57.2,55.4,94,30.03,1.5,East,12.7,23.0,0.05,Rain,Light Rain,80,2013-05-03 23:36:00
7:45 PM,57.2,55.4,94,30.04,2.0,East,13.8,20.7,0.05,Rain,Light Rain,90,2013-05-03 23:45:00
7:47 PM,57.2,55.4,94,30.04,3.0,East,18.4,27.6,0.05,Rain,Light Rain,90,2013-05-03 23:47:00
7:53 PM,57.0,55.0,93,30.02,9.0,East,15.0,27.6,0.05,,Overcast,80,2013-05-03 23:53:00
8:53 PM,57.9,55.0,90,30.02,9.0,East,15.0,23.0,N/A,,Overcast,80,2013-05-04 00:53:00
9:15 PM,57.2,55.4,94,30.03,7.0,East,16.1,27.6,N/A,,Overcast,90,2013-05-04 01:15:00
9:53 PM,57.9,55.0,90,30.03,10.0,East,16.1,25.3,N/A,,Overcast,90,2013-05-04 01:53:00
10:26 PM,57.2,53.6,88,30.06,10.0,East,16.1,21.9,N/A,,Overcast,90,2013-05-04 02:26:00
10:53 PM,57.0,53.1,87,30.04,10.0,East,11.5,-,N/A,,Overcast,100,2013-05-04 02:53:00
11:18 PM,55.4,53.6,94,30.04,10.0,East,13.8,-,N/A,,Overcast,90,2013-05-04 03:18:00
11:53 PM,55.9,53.1,90,30.01,10.0,East,11.5,-,N/A,,Overcast,90,2013-05-04 03:53:00